Year,Month,Day,Hour,Minute,Value (Times are PST for temperature in C)
2017,07,11,00,00,12.10
2017,07,11,00,01,12.10
2017,07,11,00,02,12.10
2017,07,11,00,03,12.10
2017,07,11,00,04,12.10
2017,07,11,00,05,12.10
2017,07,11,00,06,12.10
2017,07,11,00,07,12.10
2017,07,11,00,08,12.10
2017,07,11,00,09,12.10
2017,07,11,00,10,12.10
2017,07,11,00,11,12.10
2017,07,11,00,12,12.10
2017,07,11,00,13,12.10
2017,07,11,00,14,12.10
2017,07,11,00,15,12.10
2017,07,11,00,16,12.10
2017,07,11,00,17,12.10
2017,07,11,00,18,12.10
2017,07,11,00,19,12.10
2017,07,11,00,20,12.10
2017,07,11,00,21,12.10
2017,07,11,00,22,12.10
2017,07,11,00,23,12.10
2017,07,11,00,24,12.10
2017,07,11,00,25,12.10
2017,07,11,00,26,12.10
2017,07,11,00,27,12.10
2017,07,11,00,28,12.10
2017,07,11,00,29,12.10
2017,07,11,00,30,12.10
2017,07,11,00,31,12.10
2017,07,11,00,32,12.10
2017,07,11,00,33,12.10
2017,07,11,00,34,12.10
2017,07,11,00,35,12.10
2017,07,11,00,36,12.10
2017,07,11,00,37,12.10
2017,07,11,00,38,12.10
2017,07,11,00,39,12.10
2017,07,11,00,40,12.10
2017,07,11,00,41,12.10
2017,07,11,00,42,12.10
2017,07,11,00,43,12.10
2017,07,11,00,44,12.10
2017,07,11,00,45,12.10
2017,07,11,00,46,12.10
2017,07,11,00,47,12.10
2017,07,11,00,48,12.10
2017,07,11,00,49,12.10
2017,07,11,00,50,12.10
2017,07,11,00,51,12.10
2017,07,11,00,52,12.10
2017,07,11,00,53,12.10
2017,07,11,00,54,12.10
2017,07,11,00,55,12.10
2017,07,11,00,56,12.10
2017,07,11,00,57,12.10
2017,07,11,00,58,12.10
2017,07,11,00,59,12.10
2017,07,11,01,00,12.10
2017,07,11,01,01,12.10
2017,07,11,01,02,12.10
2017,07,11,01,03,12.10
2017,07,11,01,04,12.10
2017,07,11,01,05,12.10
2017,07,11,01,06,12.10
2017,07,11,01,07,12.10
2017,07,11,01,08,12.10
2017,07,11,01,09,12.10
2017,07,11,01,10,12.10
2017,07,11,01,11,12.10
2017,07,11,01,12,12.10
2017,07,11,01,13,12.10
2017,07,11,01,14,12.10
2017,07,11,01,15,12.10
2017,07,11,01,16,12.10
2017,07,11,01,17,12.10
2017,07,11,01,18,12.10
2017,07,11,01,19,12.10
2017,07,11,01,20,12.10
2017,07,11,01,21,12.10
2017,07,11,01,22,12.00
2017,07,11,01,23,12.00
2017,07,11,01,24,12.00
2017,07,11,01,25,12.00
2017,07,11,01,26,12.00
2017,07,11,01,27,12.00
2017,07,11,01,28,12.00
2017,07,11,01,29,12.00
2017,07,11,01,30,12.00
2017,07,11,01,31,12.00
2017,07,11,01,32,12.00
2017,07,11,01,33,12.00
2017,07,11,01,34,12.00
2017,07,11,01,35,12.00
2017,07,11,01,36,12.00
2017,07,11,01,37,12.00
2017,07,11,01,38,12.00
2017,07,11,01,39,12.00
2017,07,11,01,40,12.00
2017,07,11,01,41,12.00
2017,07,11,01,42,12.00
2017,07,11,01,43,12.00
2017,07,11,01,44,12.00
2017,07,11,01,45,12.00
2017,07,11,01,46,12.00
2017,07,11,01,47,12.00
2017,07,11,01,48,12.00
2017,07,11,01,49,12.00
2017,07,11,01,50,12.00
2017,07,11,01,51,12.00
2017,07,11,01,52,12.00
2017,07,11,01,53,12.00
2017,07,11,01,54,12.00
2017,07,11,01,55,12.00
2017,07,11,01,56,12.00
2017,07,11,01,57,12.00
2017,07,11,01,58,12.00
2017,07,11,01,59,12.00
2017,07,11,02,00,12.00
2017,07,11,02,01,12.00
2017,07,11,02,02,12.00
2017,07,11,02,03,12.00
2017,07,11,02,04,11.90
2017,07,11,02,05,11.90
2017,07,11,02,06,11.90
2017,07,11,02,07,11.90
2017,07,11,02,08,11.90
2017,07,11,02,09,11.90
2017,07,11,02,10,11.90
2017,07,11,02,11,11.90
2017,07,11,02,12,11.90
2017,07,11,02,13,11.90
2017,07,11,02,14,11.90
2017,07,11,02,15,11.90
2017,07,11,02,16,11.90
2017,07,11,02,17,11.90
2017,07,11,02,18,11.80
2017,07,11,02,19,11.80
2017,07,11,02,20,11.80
2017,07,11,02,21,11.80
2017,07,11,02,22,11.80
2017,07,11,02,23,11.80
2017,07,11,02,24,11.80
2017,07,11,02,25,11.80
2017,07,11,02,26,11.80
2017,07,11,02,27,11.80
2017,07,11,02,28,11.80
2017,07,11,02,29,11.70
2017,07,11,02,30,11.70
2017,07,11,02,31,11.70
2017,07,11,02,32,11.70
2017,07,11,02,33,11.70
2017,07,11,02,34,11.70
2017,07,11,02,35,11.70
2017,07,11,02,36,11.70
2017,07,11,02,37,11.70
2017,07,11,02,38,11.70
2017,07,11,02,39,11.70
2017,07,11,02,40,11.70
2017,07,11,02,41,11.70
2017,07,11,02,42,11.60
2017,07,11,02,43,11.60
2017,07,11,02,44,11.60
2017,07,11,02,45,11.60
2017,07,11,02,46,11.60
2017,07,11,02,47,11.60
2017,07,11,02,48,11.60
2017,07,11,02,49,11.60
2017,07,11,02,50,11.60
2017,07,11,02,51,11.60
2017,07,11,02,52,11.60
2017,07,11,02,53,11.60
2017,07,11,02,54,11.60
2017,07,11,02,55,11.50
2017,07,11,02,56,11.50
2017,07,11,02,57,11.50
2017,07,11,02,58,11.50
2017,07,11,02,59,11.50
2017,07,11,03,00,11.50
2017,07,11,03,01,11.50
2017,07,11,03,02,11.50
2017,07,11,03,03,11.50
2017,07,11,03,04,11.40
2017,07,11,03,05,11.40
2017,07,11,03,06,11.40
2017,07,11,03,07,11.40
2017,07,11,03,08,11.40
2017,07,11,03,09,11.40
2017,07,11,03,10,11.40
2017,07,11,03,11,11.40
2017,07,11,03,12,11.40
2017,07,11,03,13,11.40
2017,07,11,03,14,11.40
2017,07,11,03,15,11.40
2017,07,11,03,16,11.40
2017,07,11,03,17,11.40
2017,07,11,03,18,11.40
2017,07,11,03,19,11.40
2017,07,11,03,20,11.40
2017,07,11,03,21,11.40
2017,07,11,03,22,11.40
2017,07,11,03,23,11.40
2017,07,11,03,24,11.40
2017,07,11,03,25,11.40
2017,07,11,03,26,11.40
2017,07,11,03,27,11.40
2017,07,11,03,28,11.40
2017,07,11,03,29,11.40
2017,07,11,03,30,11.40
2017,07,11,03,31,11.40
2017,07,11,03,32,11.40
2017,07,11,03,33,11.40
2017,07,11,03,34,11.40
2017,07,11,03,35,11.40
2017,07,11,03,36,11.40
2017,07,11,03,37,11.40
2017,07,11,03,38,11.40
2017,07,11,03,39,11.30
2017,07,11,03,40,11.30
2017,07,11,03,41,11.30
2017,07,11,03,42,11.30
2017,07,11,03,43,11.30
2017,07,11,03,44,11.30
2017,07,11,03,45,11.30
2017,07,11,03,46,11.30
2017,07,11,03,47,11.30
2017,07,11,03,48,11.30
2017,07,11,03,49,11.30
2017,07,11,03,50,11.30
2017,07,11,03,51,11.30
2017,07,11,03,52,11.30
2017,07,11,03,53,11.30
2017,07,11,03,54,11.30
2017,07,11,03,55,11.30
2017,07,11,03,56,11.30
2017,07,11,03,57,11.20
2017,07,11,03,58,11.20
2017,07,11,03,59,11.20
2017,07,11,04,00,11.20
2017,07,11,04,01,11.10
2017,07,11,04,02,11.10
2017,07,11,04,03,11.10
2017,07,11,04,04,11.10
2017,07,11,04,05,11.10
2017,07,11,04,06,11.00
2017,07,11,04,07,11.00
2017,07,11,04,08,11.00
2017,07,11,04,09,11.00
2017,07,11,04,10,11.00
2017,07,11,04,11,11.00
2017,07,11,04,12,10.90
2017,07,11,04,13,10.90
2017,07,11,04,14,10.90
2017,07,11,04,15,10.90
2017,07,11,04,16,10.90
2017,07,11,04,17,10.90
2017,07,11,04,18,10.90
2017,07,11,04,19,10.90
2017,07,11,04,20,10.90
2017,07,11,04,21,10.90
2017,07,11,04,22,10.90
2017,07,11,04,23,10.90
2017,07,11,04,24,10.90
2017,07,11,04,25,10.90
2017,07,11,04,26,10.90
2017,07,11,04,27,10.90
2017,07,11,04,28,10.90
2017,07,11,04,29,10.90
2017,07,11,04,30,10.90
2017,07,11,04,31,10.90
2017,07,11,04,32,10.90
2017,07,11,04,33,10.90
2017,07,11,04,34,10.90
2017,07,11,04,35,10.90
2017,07,11,04,36,10.90
2017,07,11,04,37,10.90
2017,07,11,04,38,11.00
2017,07,11,04,39,11.00
2017,07,11,04,40,11.00
2017,07,11,04,41,11.00
2017,07,11,04,42,11.00
2017,07,11,04,43,11.00
2017,07,11,04,44,10.90
2017,07,11,04,45,10.90
2017,07,11,04,46,10.90
2017,07,11,04,47,10.90
2017,07,11,04,48,10.90
2017,07,11,04,49,10.90
2017,07,11,04,50,10.90
2017,07,11,04,51,10.90
2017,07,11,04,52,10.90
2017,07,11,04,53,10.80
2017,07,11,04,54,10.80
2017,07,11,04,55,10.80
2017,07,11,04,56,10.80
2017,07,11,04,57,10.80
2017,07,11,04,58,10.70
2017,07,11,04,59,10.70
2017,07,11,05,00,10.70
2017,07,11,05,01,10.70
2017,07,11,05,02,10.60
2017,07,11,05,03,10.60
2017,07,11,05,04,10.60
2017,07,11,05,05,10.60
2017,07,11,05,06,10.60
2017,07,11,05,07,10.50
2017,07,11,05,08,10.50
2017,07,11,05,09,10.40
2017,07,11,05,10,10.40
2017,07,11,05,11,10.40
2017,07,11,05,12,10.40
2017,07,11,05,13,10.30
2017,07,11,05,14,10.30
2017,07,11,05,15,10.30
2017,07,11,05,16,10.30
2017,07,11,05,17,10.30
2017,07,11,05,18,10.30
2017,07,11,05,19,10.30
2017,07,11,05,20,10.30
2017,07,11,05,21,10.30
2017,07,11,05,22,10.20
2017,07,11,05,23,10.20
2017,07,11,05,24,10.20
2017,07,11,05,25,10.20
2017,07,11,05,26,10.20
2017,07,11,05,27,10.20
2017,07,11,05,28,10.20
2017,07,11,05,29,10.20
2017,07,11,05,30,10.20
2017,07,11,05,31,10.20
2017,07,11,05,32,10.20
2017,07,11,05,33,10.20
2017,07,11,05,34,10.20
2017,07,11,05,35,10.20
2017,07,11,05,36,10.20
2017,07,11,05,37,10.20
2017,07,11,05,38,10.20
2017,07,11,05,39,10.20
2017,07,11,05,40,10.20
2017,07,11,05,41,10.20
2017,07,11,05,42,10.20
2017,07,11,05,43,10.10
2017,07,11,05,44,10.10
2017,07,11,05,45,10.10
2017,07,11,05,46,10.10
2017,07,11,05,47,10.10
2017,07,11,05,48,10.10
2017,07,11,05,49,10.10
2017,07,11,05,50,10.10
2017,07,11,05,51,10.10
2017,07,11,05,52,10.10
2017,07,11,05,53,10.10
2017,07,11,05,54,10.10
2017,07,11,05,55,10.10
2017,07,11,05,56,10.10
2017,07,11,05,57,10.10
2017,07,11,05,58,10.10
2017,07,11,05,59,10.10
2017,07,11,06,00,10.00
2017,07,11,06,01,10.00
2017,07,11,06,02,10.00
2017,07,11,06,03,10.00
2017,07,11,06,04,10.00
2017,07,11,06,05,10.00
2017,07,11,06,06,10.00
2017,07,11,06,07,10.00
2017,07,11,06,08,10.00
2017,07,11,06,09,9.90
2017,07,11,06,10,9.90
2017,07,11,06,11,9.90
2017,07,11,06,12,9.90
2017,07,11,06,13,9.90
2017,07,11,06,14,9.90
2017,07,11,06,15,9.90
2017,07,11,06,16,9.90
2017,07,11,06,17,9.90
2017,07,11,06,18,9.90
2017,07,11,06,19,9.90
2017,07,11,06,20,9.90
2017,07,11,06,21,9.90
2017,07,11,06,22,9.90
2017,07,11,06,23,9.90
2017,07,11,06,24,9.90
2017,07,11,06,25,9.90
2017,07,11,06,26,9.90
2017,07,11,06,27,9.80
2017,07,11,06,28,9.80
2017,07,11,06,29,9.80
2017,07,11,06,30,9.80
2017,07,11,06,31,9.80
2017,07,11,06,32,9.80
2017,07,11,06,33,9.80
2017,07,11,06,34,9.80
2017,07,11,06,35,9.80
2017,07,11,06,36,9.80
2017,07,11,06,37,9.80
2017,07,11,06,38,9.80
2017,07,11,06,39,9.80
2017,07,11,06,40,9.80
2017,07,11,06,41,9.80
2017,07,11,06,42,9.80
2017,07,11,06,43,9.80
2017,07,11,06,44,9.80
2017,07,11,06,45,9.80
2017,07,11,06,46,9.80
2017,07,11,06,47,9.80
2017,07,11,06,48,9.80
2017,07,11,06,49,9.90
2017,07,11,06,50,9.90
2017,07,11,06,51,9.90
2017,07,11,06,52,9.90
2017,07,11,06,53,9.90
2017,07,11,06,54,9.90
2017,07,11,06,55,9.90
2017,07,11,06,56,9.90
2017,07,11,06,57,9.90
2017,07,11,06,58,9.90
2017,07,11,06,59,9.90
2017,07,11,07,00,9.90
2017,07,11,07,01,10.00
2017,07,11,07,02,10.00
2017,07,11,07,03,10.10
2017,07,11,07,04,10.10
2017,07,11,07,05,10.20
2017,07,11,07,06,10.20
2017,07,11,07,07,10.30
2017,07,11,07,08,10.30
2017,07,11,07,09,10.30
2017,07,11,07,10,10.30
2017,07,11,07,11,10.40
2017,07,11,07,12,10.40
2017,07,11,07,13,10.40
2017,07,11,07,14,10.40
2017,07,11,07,15,10.40
2017,07,11,07,16,10.40
2017,07,11,07,17,10.50
2017,07,11,07,18,10.50
2017,07,11,07,19,10.60
2017,07,11,07,20,10.60
2017,07,11,07,21,10.60
2017,07,11,07,22,10.70
2017,07,11,07,23,10.70
2017,07,11,07,24,10.70
2017,07,11,07,25,10.80
2017,07,11,07,26,10.80
2017,07,11,07,27,10.90
2017,07,11,07,28,10.90
2017,07,11,07,29,11.00
2017,07,11,07,30,11.00
2017,07,11,07,31,11.10
2017,07,11,07,32,11.10
2017,07,11,07,33,11.10
2017,07,11,07,34,11.10
2017,07,11,07,35,11.20
2017,07,11,07,36,11.20
2017,07,11,07,37,11.20
2017,07,11,07,38,11.20
2017,07,11,07,39,11.30
2017,07,11,07,40,11.30
2017,07,11,07,41,11.30
2017,07,11,07,42,11.30
2017,07,11,07,43,11.30
2017,07,11,07,44,11.40
2017,07,11,07,45,11.40
2017,07,11,07,46,11.40
2017,07,11,07,47,11.40
2017,07,11,07,48,11.50
2017,07,11,07,49,11.50
2017,07,11,07,50,11.50
2017,07,11,07,51,11.60
2017,07,11,07,52,11.60
2017,07,11,07,53,11.60
2017,07,11,07,54,11.60
2017,07,11,07,55,11.60
2017,07,11,07,56,11.60
2017,07,11,07,57,11.70
2017,07,11,07,58,11.70
2017,07,11,07,59,11.70
2017,07,11,08,00,11.80
2017,07,11,08,01,11.80
2017,07,11,08,02,11.80
2017,07,11,08,03,11.80
2017,07,11,08,04,11.80
2017,07,11,08,05,11.90
2017,07,11,08,06,11.90
2017,07,11,08,07,12.00
2017,07,11,08,08,12.00
2017,07,11,08,09,12.10
2017,07,11,08,10,12.10
2017,07,11,08,11,12.20
2017,07,11,08,12,12.20
2017,07,11,08,13,12.30
2017,07,11,08,14,12.30
2017,07,11,08,15,12.30
2017,07,11,08,16,12.40
2017,07,11,08,17,12.40
2017,07,11,08,18,12.40
2017,07,11,08,19,12.50
2017,07,11,08,20,12.50
2017,07,11,08,21,12.50
2017,07,11,08,22,12.50
2017,07,11,08,23,12.60
2017,07,11,08,24,12.60
2017,07,11,08,25,12.70
2017,07,11,08,26,12.80
2017,07,11,08,27,12.90
2017,07,11,08,28,13.00
2017,07,11,08,29,13.00
2017,07,11,08,30,13.10
2017,07,11,08,31,13.20
2017,07,11,08,32,13.30
2017,07,11,08,33,13.30
2017,07,11,08,34,13.30
2017,07,11,08,35,13.40
2017,07,11,08,36,13.50
2017,07,11,08,37,13.60
2017,07,11,08,38,13.60
2017,07,11,08,39,13.70
2017,07,11,08,40,13.80
2017,07,11,08,41,13.80
2017,07,11,08,42,13.80
2017,07,11,08,43,13.90
2017,07,11,08,44,13.90
2017,07,11,08,45,14.00
2017,07,11,08,46,14.10
2017,07,11,08,47,14.10
2017,07,11,08,48,14.10
2017,07,11,08,49,14.10
2017,07,11,08,50,14.20
2017,07,11,08,51,14.30
2017,07,11,08,52,14.30
2017,07,11,08,53,14.40
2017,07,11,08,54,14.50
2017,07,11,08,55,14.60
2017,07,11,08,56,14.60
2017,07,11,08,57,14.70
2017,07,11,08,58,14.70
2017,07,11,08,59,14.80
2017,07,11,09,00,14.70
2017,07,11,09,01,14.70
2017,07,11,09,02,14.80
2017,07,11,09,03,14.70
2017,07,11,09,04,14.70
2017,07,11,09,05,14.70
2017,07,11,09,06,14.70
2017,07,11,09,07,14.70
2017,07,11,09,08,14.70
2017,07,11,09,09,14.70
2017,07,11,09,10,14.70
2017,07,11,09,11,14.70
2017,07,11,09,12,14.70
2017,07,11,09,13,14.80
2017,07,11,09,14,15.00
2017,07,11,09,15,15.00
2017,07,11,09,16,15.00
2017,07,11,09,17,15.00
2017,07,11,09,18,15.00
2017,07,11,09,19,15.10
2017,07,11,09,20,15.10
2017,07,11,09,21,15.20
2017,07,11,09,22,15.30
2017,07,11,09,23,15.30
2017,07,11,09,24,15.40
2017,07,11,09,25,15.40
2017,07,11,09,26,15.40
2017,07,11,09,27,15.40
2017,07,11,09,28,15.50
2017,07,11,09,29,15.60
2017,07,11,09,30,15.60
2017,07,11,09,31,15.60
2017,07,11,09,32,15.60
2017,07,11,09,33,15.70
2017,07,11,09,34,15.80
2017,07,11,09,35,15.90
2017,07,11,09,36,16.00
2017,07,11,09,37,16.10
2017,07,11,09,38,16.20
2017,07,11,09,39,16.30
2017,07,11,09,40,16.20
2017,07,11,09,41,16.20
2017,07,11,09,42,16.10
2017,07,11,09,43,16.10
2017,07,11,09,44,16.10
2017,07,11,09,45,16.20
2017,07,11,09,46,16.30
2017,07,11,09,47,16.30
2017,07,11,09,48,16.40
2017,07,11,09,49,16.50
2017,07,11,09,50,16.60
2017,07,11,09,51,16.70
2017,07,11,09,52,16.60
2017,07,11,09,53,16.50
2017,07,11,09,54,16.40
2017,07,11,09,55,16.40
2017,07,11,09,56,16.40
2017,07,11,16,17,23.30
2017,07,11,16,18,23.40
2017,07,11,16,19,23.40
2017,07,11,16,20,23.50
2017,07,11,16,21,23.40
2017,07,11,16,22,23.40
2017,07,11,16,23,23.40
2017,07,11,16,24,23.40
2017,07,11,16,25,23.40
2017,07,11,16,26,23.40
2017,07,11,16,27,23.40
2017,07,11,16,28,23.50
2017,07,11,16,29,23.50
2017,07,11,16,30,23.60
2017,07,11,16,31,23.60
2017,07,11,16,32,23.70
2017,07,11,16,33,23.60
2017,07,11,16,34,23.60
2017,07,11,16,35,23.50
2017,07,11,16,36,23.50
2017,07,11,16,37,23.50
2017,07,11,16,38,23.50
2017,07,11,16,39,23.50
2017,07,11,16,40,23.50
2017,07,11,16,41,23.40
2017,07,11,16,42,23.40
2017,07,11,16,43,23.40
2017,07,11,16,44,23.40
2017,07,11,16,45,23.50
2017,07,11,16,46,23.50
2017,07,11,16,47,23.60
2017,07,11,16,48,23.60
2017,07,11,16,49,23.70
2017,07,11,16,50,23.70
2017,07,11,16,51,23.70
2017,07,11,16,52,23.70
2017,07,11,16,53,23.60
2017,07,11,16,54,23.60
2017,07,11,16,55,23.50
2017,07,11,16,56,23.40
2017,07,11,16,57,23.40
2017,07,11,16,58,23.40
2017,07,11,16,59,23.40
2017,07,11,17,00,23.40
2017,07,11,17,01,23.40
2017,07,11,17,02,23.40
2017,07,11,17,03,23.40
2017,07,11,17,04,23.40
2017,07,11,17,05,23.50
2017,07,11,17,06,23.50
2017,07,11,17,07,23.60
2017,07,11,17,08,23.70
2017,07,11,17,09,23.80
2017,07,11,17,10,23.90
2017,07,11,17,11,24.00
2017,07,11,17,12,24.10
2017,07,11,17,13,24.30
2017,07,11,17,14,24.30
2017,07,11,17,15,24.40
2017,07,11,17,16,24.50
2017,07,11,17,17,24.60
2017,07,11,17,18,24.60
2017,07,11,17,19,24.70
2017,07,11,17,20,24.70
2017,07,11,17,21,24.80
2017,07,11,17,22,24.80
2017,07,11,17,23,24.80
2017,07,11,17,24,24.70
2017,07,11,17,25,24.60
2017,07,11,17,26,24.50
2017,07,11,17,27,24.40
2017,07,11,17,28,24.30
2017,07,11,17,29,24.30
2017,07,11,17,30,24.40
2017,07,11,17,31,24.40
2017,07,11,17,32,24.40
2017,07,11,17,33,24.40
2017,07,11,17,34,24.40
2017,07,11,17,35,24.40
2017,07,11,17,36,24.30
2017,07,11,17,37,24.20
2017,07,11,17,38,24.20
2017,07,11,17,39,24.00
2017,07,11,17,40,23.90
2017,07,11,17,41,23.90
2017,07,11,17,42,23.80
2017,07,11,17,43,23.70
2017,07,11,17,44,23.60
2017,07,11,17,45,23.60
2017,07,11,17,46,23.50
2017,07,11,17,47,23.40
2017,07,11,17,48,23.40
2017,07,11,17,49,23.40
2017,07,11,17,50,23.40
2017,07,11,17,51,23.50
2017,07,11,17,52,23.50
2017,07,11,17,53,23.60
2017,07,11,17,54,23.60
2017,07,11,17,55,23.60
2017,07,11,17,56,23.60
2017,07,11,17,57,23.60
2017,07,11,17,58,23.40
2017,07,11,17,59,23.40
2017,07,11,18,00,23.30
2017,07,11,18,01,23.30
2017,07,11,18,02,23.30
2017,07,11,18,03,23.20
2017,07,11,18,04,23.20
2017,07,11,18,05,23.30
2017,07,11,18,06,23.30
2017,07,11,18,07,23.20
2017,07,11,18,08,23.20
2017,07,11,18,09,23.10
2017,07,11,18,10,23.10
2017,07,11,18,11,23.10
2017,07,11,18,12,23.10
2017,07,11,18,13,23.00
2017,07,11,18,14,22.90
2017,07,11,18,15,22.90
2017,07,11,18,16,22.80
2017,07,11,18,17,22.80
2017,07,11,18,18,22.80
2017,07,11,18,19,22.80
2017,07,11,18,20,22.80
2017,07,11,18,21,22.80
2017,07,11,18,22,22.80
2017,07,11,18,23,22.80
2017,07,11,18,24,22.80
2017,07,11,18,25,22.80
2017,07,11,18,26,22.80
2017,07,11,18,27,22.80
2017,07,11,18,28,22.80
2017,07,11,18,29,22.80
2017,07,11,18,30,22.80
2017,07,11,18,31,22.80
2017,07,11,18,32,22.80
2017,07,11,18,33,22.80
2017,07,11,18,34,22.80
2017,07,11,18,35,22.80
2017,07,11,18,36,22.80
2017,07,11,18,37,22.80
2017,07,11,18,38,22.80
2017,07,11,18,39,22.90
2017,07,11,18,40,22.90
2017,07,11,18,41,22.90
2017,07,11,18,42,22.90
2017,07,11,18,43,22.90
2017,07,11,18,44,22.90
2017,07,11,18,45,22.90
2017,07,11,18,46,22.70
2017,07,11,18,47,22.50
2017,07,11,18,48,22.40
2017,07,11,18,49,22.30
2017,07,11,18,50,22.20
2017,07,11,18,51,22.10
2017,07,11,18,52,22.00
2017,07,11,18,53,21.90
2017,07,11,18,54,21.80
2017,07,11,18,55,21.80
2017,07,11,18,56,21.80
2017,07,11,18,57,21.70
2017,07,11,18,58,21.70
2017,07,11,18,59,21.60
2017,07,11,19,00,21.60
2017,07,11,19,01,21.60
2017,07,11,19,02,21.60
2017,07,11,19,03,21.60
2017,07,11,19,04,21.60
2017,07,11,19,05,21.60
2017,07,11,19,06,21.60
2017,07,11,19,07,21.60
2017,07,11,19,08,21.60
2017,07,11,19,09,21.60
2017,07,11,19,10,21.60
2017,07,11,19,11,21.60
2017,07,11,19,12,21.60
2017,07,11,19,13,21.60
2017,07,11,19,14,21.60
2017,07,11,19,15,21.60
2017,07,11,19,16,21.60
2017,07,11,19,17,21.60
2017,07,11,19,18,21.60
2017,07,11,19,19,21.50
2017,07,11,19,20,21.50
2017,07,11,19,21,21.40
2017,07,11,19,22,21.40
2017,07,11,19,23,21.30
2017,07,11,19,24,21.30
2017,07,11,19,25,21.30
2017,07,11,19,26,21.30
2017,07,11,19,27,21.20
2017,07,11,19,28,21.20
2017,07,11,19,29,21.10
2017,07,11,19,30,21.10
2017,07,11,19,31,21.00
2017,07,11,19,32,21.00
2017,07,11,19,33,20.90
2017,07,11,19,34,20.90
2017,07,11,19,35,20.80
2017,07,11,19,36,20.80
2017,07,11,19,37,20.80
2017,07,11,19,38,20.80
2017,07,11,19,39,20.80
2017,07,11,19,40,20.70
2017,07,11,19,41,20.70
2017,07,11,19,42,20.70
2017,07,11,19,43,20.70
2017,07,11,19,44,20.70
2017,07,11,19,45,20.70
2017,07,11,19,46,20.60
2017,07,11,19,47,20.60
2017,07,11,19,48,20.60
2017,07,11,19,49,20.60
2017,07,11,19,50,20.60
2017,07,11,19,51,20.50
2017,07,11,19,52,20.50
2017,07,11,19,53,20.50
2017,07,11,19,54,20.50
2017,07,11,19,55,20.50
2017,07,11,19,56,20.50
2017,07,11,19,57,20.50
2017,07,11,19,58,20.50
2017,07,11,19,59,20.50
2017,07,11,20,00,20.50
2017,07,11,20,01,20.40
2017,07,11,20,02,20.40
2017,07,11,20,03,20.40
2017,07,11,20,04,20.40
2017,07,11,20,05,20.40
2017,07,11,20,06,20.30
2017,07,11,20,07,20.30
2017,07,11,20,08,20.30
2017,07,11,20,09,20.30
2017,07,11,20,10,20.30
2017,07,11,20,11,20.20
2017,07,11,20,12,20.20
2017,07,11,20,13,20.20
2017,07,11,20,14,20.10
2017,07,11,20,15,20.10
2017,07,11,20,16,20.10
2017,07,11,20,17,20.00
2017,07,11,20,18,20.00
2017,07,11,20,19,19.90
2017,07,11,20,20,19.90
2017,07,11,20,21,19.90
2017,07,11,20,22,19.80
2017,07,11,20,23,19.70
2017,07,11,20,24,19.70
2017,07,11,20,25,19.60
2017,07,11,20,26,19.60
2017,07,11,20,27,19.60
2017,07,11,20,28,19.50
2017,07,11,20,29,19.50
2017,07,11,20,30,19.40
2017,07,11,20,31,19.40
2017,07,11,20,32,19.40
2017,07,11,20,33,19.40
2017,07,11,20,34,19.40
2017,07,11,20,35,19.30
2017,07,11,20,36,19.30
2017,07,11,20,37,19.30
2017,07,11,20,38,19.30
2017,07,11,20,39,19.30
2017,07,11,20,40,19.30
2017,07,11,20,41,19.30
2017,07,11,20,42,19.30
2017,07,11,20,43,19.30
2017,07,11,20,44,19.30
2017,07,11,20,45,19.30
2017,07,11,20,46,19.30
2017,07,11,20,47,19.20
2017,07,11,20,48,19.20
2017,07,11,20,49,19.20
2017,07,11,20,50,19.20
2017,07,11,20,51,19.20
2017,07,11,20,52,19.20
2017,07,11,20,53,19.20
2017,07,11,20,54,19.20
2017,07,11,20,55,19.20
2017,07,11,20,56,19.10
2017,07,11,20,57,19.10
2017,07,11,20,58,19.10
2017,07,11,20,59,19.10
2017,07,11,21,00,19.00
2017,07,11,21,01,19.00
2017,07,11,21,02,18.90
2017,07,11,21,03,18.90
2017,07,11,21,04,18.90
2017,07,11,21,05,18.90
2017,07,11,21,06,18.80
2017,07,11,21,07,18.80
2017,07,11,21,08,18.70
2017,07,11,21,09,18.70
2017,07,11,21,10,18.70
2017,07,11,21,11,18.60
2017,07,11,21,12,18.60
2017,07,11,21,13,18.60
2017,07,11,21,14,18.50
2017,07,11,21,15,18.40
2017,07,11,21,16,18.40
2017,07,11,21,17,18.40
2017,07,11,21,18,18.30
2017,07,11,21,19,18.30
2017,07,11,21,20,18.30
2017,07,11,21,21,18.20
2017,07,11,21,22,18.20
2017,07,11,21,23,18.20
2017,07,11,21,24,18.10
2017,07,11,21,25,18.10
2017,07,11,21,26,18.00
2017,07,11,21,27,17.90
2017,07,11,21,28,17.90
2017,07,11,21,29,17.90
2017,07,11,21,30,17.90
2017,07,11,21,31,17.80
2017,07,11,21,32,17.80
2017,07,11,21,33,17.80
2017,07,11,21,34,17.80
2017,07,11,21,35,17.70
2017,07,11,21,36,17.70
2017,07,11,21,37,17.60
2017,07,11,21,38,17.60
2017,07,11,21,39,17.50
2017,07,11,21,40,17.50
2017,07,11,21,41,17.40
2017,07,11,21,42,17.40
2017,07,11,21,43,17.40
2017,07,11,21,44,17.30
2017,07,11,21,45,17.30
2017,07,11,21,46,17.30
2017,07,11,21,47,17.20
2017,07,11,21,48,17.10
2017,07,11,21,49,17.10
2017,07,11,21,50,17.00
2017,07,11,21,51,17.00
2017,07,11,21,52,16.90
2017,07,11,21,53,16.90
2017,07,11,21,54,16.90
2017,07,11,21,55,16.80
2017,07,11,21,56,16.80
2017,07,11,21,57,16.80
2017,07,11,21,58,16.80
2017,07,11,21,59,16.70
2017,07,11,22,00,16.70
2017,07,11,22,01,16.60
2017,07,11,22,02,16.60
2017,07,11,22,03,16.60
2017,07,11,22,04,16.50
2017,07,11,22,05,16.40
2017,07,11,22,06,16.40
2017,07,11,22,07,16.40
2017,07,11,22,08,16.40
2017,07,11,22,09,16.40
2017,07,11,22,10,16.30
2017,07,11,22,11,16.30
2017,07,11,22,12,16.30
2017,07,11,22,13,16.30
2017,07,11,22,14,16.30
2017,07,11,22,15,16.30
2017,07,11,22,16,16.30
2017,07,11,22,17,16.30
2017,07,11,22,18,16.30
2017,07,11,22,19,16.30
2017,07,11,22,20,16.30
2017,07,11,22,21,16.30
2017,07,11,22,22,16.30
2017,07,11,22,23,16.30
2017,07,11,22,24,16.30
2017,07,11,22,25,16.30
2017,07,11,22,26,16.20
2017,07,11,22,27,16.20
2017,07,11,22,28,16.20
2017,07,11,22,29,16.10
2017,07,11,22,30,16.10
2017,07,11,22,31,16.10
2017,07,11,22,32,16.10
2017,07,11,22,33,16.00
2017,07,11,22,34,15.90
2017,07,11,22,35,15.90
2017,07,11,22,36,15.90
2017,07,11,22,37,15.80
2017,07,11,22,38,15.80
2017,07,11,22,39,15.80
2017,07,11,22,40,15.70
2017,07,11,22,41,15.70
2017,07,11,22,42,15.70
2017,07,11,22,43,15.60
2017,07,11,22,44,15.60
2017,07,11,22,45,15.60
2017,07,11,22,46,15.60
2017,07,11,22,47,15.60
2017,07,11,22,48,15.50
2017,07,11,22,49,15.50
2017,07,11,22,50,15.50
2017,07,11,22,51,15.50
2017,07,11,22,52,15.50
2017,07,11,22,53,15.40
2017,07,11,22,54,15.40
2017,07,11,22,55,15.40
2017,07,11,22,56,15.30
2017,07,11,22,57,15.30
2017,07,11,22,58,15.30
2017,07,11,22,59,15.30
2017,07,11,23,00,15.20
2017,07,11,23,01,15.20
2017,07,11,23,02,15.20
2017,07,11,23,03,15.20
2017,07,11,23,04,15.10
2017,07,11,23,05,15.10
2017,07,11,23,06,15.10
2017,07,11,23,07,15.10
2017,07,11,23,08,15.10
2017,07,11,23,09,15.00
2017,07,11,23,10,15.00
2017,07,11,23,11,15.00
2017,07,11,23,12,15.00
2017,07,11,23,13,15.00
2017,07,11,23,14,15.00
2017,07,11,23,15,15.00
2017,07,11,23,16,15.00
2017,07,11,23,17,15.00
2017,07,11,23,18,15.00
2017,07,11,23,19,15.00
2017,07,11,23,20,15.00
2017,07,11,23,21,15.00
2017,07,11,23,22,15.00
2017,07,11,23,23,15.00
2017,07,11,23,24,15.00
2017,07,11,23,25,15.00
2017,07,11,23,26,14.90
2017,07,11,23,27,14.90
2017,07,11,23,28,14.90
2017,07,11,23,29,14.90
2017,07,11,23,30,14.80
2017,07,11,23,31,14.80
2017,07,11,23,32,14.80
2017,07,11,23,33,14.80
2017,07,11,23,34,14.80
2017,07,11,23,35,14.70
2017,07,11,23,36,14.70
2017,07,11,23,37,14.70
2017,07,11,23,38,14.70
2017,07,11,23,39,14.60
2017,07,11,23,40,14.60
2017,07,11,23,41,14.60